FW3572 Weather Reports


Display with metric or nautical units.
time (UTC)temp
F
wind
direction
speed
MPH
gust
MPH
rain 1hr
in
rain 24hr
in
rain mn
in
humidity
%
barometer
mb
20191021181041 87 148 6.0 10.0 0.00 0.03 0.00 63 1016.5
20191021180548 88 101 1.0 10.0 0.00 0.03 0.00 66 1016.4
20191021180050 87 167 3.0 10.0 0.00 0.03 0.00 59 1016.4
20191021175542 89 98 3.0 8.0 0.00 0.03 0.00 63 1016.4
20191021175040 89 154 5.0 13.0 0.00 0.03 0.00 63 1016.5
20191021174556 89 109 3.0 13.0 0.00 0.03 0.00 61 1016.5
20191021174040 89 181 3.0 9.0 0.00 0.03 0.00 55 1016.5
20191021173542 88 238 2.0 9.0 0.00 0.03 0.00 57 1016.6
20191021173135 89 215 3.0 7.0 0.00 0.03 0.00 55 1016.8
20191021172540 89 214 4.0 8.0 0.00 0.03 0.00 55 1016.8
20191021172044 87 155 3.0 8.0 0.00 0.03 0.00 56 1016.8
20191021171612 88 194 3.0 9.0 0.00 0.03 0.00 56 1016.8
20191021171038 89 209 4.0 9.0 0.00 0.03 0.00 55 1016.8
20191021170542 88 237 2.0 8.0 0.00 0.03 0.00 58 1016.8
20191021170037 89 194 3.0 9.0 0.00 0.03 0.00 57 1017.0
20191021165535 88 225 4.0 9.0 0.00 0.03 0.00 58 1017.0
20191021165047 88 260 1.0 9.0 0.00 0.03 0.00 59 1017.0
20191021164546 88 242 3.0 11.0 0.00 0.03 0.00 58 1017.1
20191021164050 88 159 4.0 13.0 0.00 0.03 0.00 57 1017.0
20191021163538 88 248 4.0 12.0 0.00 0.03 0.00 56 1017.1
20191021163148 87 223 4.0 12.0 0.00 0.03 0.00 58 1017.1
20191021162543 88 252 3.0 8.0 0.00 0.03 0.00 59 1017.2
20191021162033 87 205 2.0 12.0 0.00 0.03 0.00 61 1017.2
20191021161631 87 154 6.0 12.0 0.00 0.03 0.00 61 1017.3
20191021161037 87 222 3.0 10.0 0.00 0.03 0.00 60 1017.3
20191021160531 86 242 4.0 10.0 0.00 0.03 0.00 63 1017.4
20191021160059 86 215 2.0 8.0 0.00 0.03 0.00 65 1017.3
20191021155531 86 213 3.0 10.0 0.00 0.03 0.00 63 1017.4
20191021155040 87 251 4.0 10.0 0.00 0.03 0.00 62 1017.4
20191021154542 86 172 3.0 7.0 0.00 0.03 0.00 63 1017.4
20191021154030 86 229 1.0 10.0 0.00 0.03 0.00 65 1017.4
20191021153529 86 229 3.0 10.0 0.00 0.03 0.00 63 1017.4
20191021153150 87 242 1.0 8.0 0.00 0.03 0.00 64 1017.3
20191021152527 86 205 3.0 10.0 0.00 0.03 0.00 64 1017.3
20191021152040 86 227 4.0 10.0 0.00 0.03 0.00 64 1017.2
20191021151552 86 174 2.0 6.0 0.00 0.03 0.00 64 1017.2
20191021151024 86 169 2.0 10.0 0.00 0.03 0.00 66 1017.2
20191021150523 85 258 2.0 10.0 0.00 0.03 0.00 66 1017.2
20191021150101 85 144 2.0 8.0 0.00 0.03 0.00 67 1017.2
20191021145522 85 173 3.0 10.0 0.00 0.03 0.00 66 1017.2
20191021145022 85 252 2.0 10.0 0.00 0.03 0.00 68 1017.1
20191021144554 85 225 4.0 8.0 0.00 0.03 0.00 68 1017.2
20191021144031 85 237 2.0 5.0 0.00 0.03 0.00 68 1017.2
20191021143526 85 242 1.0 7.0 0.00 0.03 0.00 70 1017.2
20191021143041 84 204 1.0 7.0 0.00 0.03 0.00 70 1017.1
20191021142520 84 238 3.0 9.0 0.00 0.03 0.00 70 1017.0
20191021142028 84 240 3.0 9.0 0.00 0.03 0.00 70 1017.0
20191021141542 84 191 1.0 4.0 0.00 0.03 0.00 71 1017.0
20191021141024 83 166 1.0 5.0 0.00 0.03 0.00 71 1017.0
20191021140515 83 240 2.0 7.0 0.00 0.03 0.00 72 1017.0
20191021140043 83 253 2.0 8.0 0.00 0.03 0.00 73 1016.9
20191021135513 82 254 2.0 7.0 0.00 0.03 0.00 73 1017.0
20191021135021 82 214 3.0 6.0 0.00 0.03 0.00 74 1017.0
20191021134512 82 193 2.0 5.0 0.00 0.03 0.00 74 1017.0
20191021134016 82 190 3.0 5.0 0.00 0.03 0.00 75 1017.0
20191021133510 82 202 2.0 6.0 0.00 0.03 0.00 76 1017.0
20191021133018 81 259 2.0 8.0 0.00 0.03 0.00 76 1016.9
20191021132514 81 242 2.0 8.0 0.00 0.03 0.00 77 1017.0
20191021132010 81 253 1.0 7.0 0.00 0.03 0.00 77 1016.9
20191021131536 80 157 1.0 7.0 0.00 0.03 0.00 78 1017.1
20191021131010 80 248 3.0 6.0 0.00 0.03 0.00 78 1016.9
20191021130507 80 254 0.0 6.0 0.00 0.03 0.00 80 1017.0
20191021130004 80 225 2.0 6.0 0.00 0.03 0.00 80 1016.9
20191021125504 79 237 0.0 6.0 0.00 0.03 0.00 82 1016.9
20191021125004 79 260 1.0 4.0 0.00 0.03 0.00 83 1016.9
20191021124505 79 223 0.0 4.0 0.00 0.03 0.00 84 1016.9
20191021123501 78 207 1.0 3.0 0.00 0.03 0.00 86 1016.8
20191021123230 78 233 0.0 3.0 0.00 0.03 0.00 86 1016.8
20191021122559 77 228 0.0 0.0 0.00 0.03 0.00 86 1016.7
20191021122058 77 225 0.0 0.0 0.00 0.03 0.00 87 1016.6
20191021121701 77 225 0.0 0.0 0.00 0.03 0.00 87 1016.6
20191021121058 77 225 0.0 0.0 0.00 0.03 0.00 87 1016.6
20191021120557 77 225 0.0 0.0 0.00 0.03 0.00 87 1016.5
20191021120155 76 225 0.0 0.0 0.00 0.03 0.00 87 1016.6
20191021115557 76 232 0.0 0.0 0.00 0.03 0.00 87 1016.6
20191021115106 76 244 0.0 0.0 0.00 0.03 0.00 87 1016.6
20191021114655 76 244 0.0 0.0 0.00 0.03 0.00 87 1016.6
20191021114055 76 244 0.0 0.0 0.00 0.03 0.00 87 1016.5
20191021113555 76 244 0.0 0.0 0.00 0.03 0.00 86 1016.3
20191021113142 76 244 0.0 0.0 0.00 0.03 0.00 86 1016.3
20191021112554 76 244 0.0 0.0 0.00 0.03 0.00 86 1016.3
20191021112057 76 244 0.0 0.0 0.00 0.03 0.00 86 1016.2
20191021111648 76 244 0.0 0.0 0.00 0.03 0.00 86 1016.2
20191021111105 76 244 0.0 0.0 0.00 0.03 0.00 86 1016.2
20191021110603 76 244 0.0 0.0 0.00 0.03 0.00 86 1016.1
20191021110114 76 244 0.0 0.0 0.00 0.03 0.00 86 1016.0
20191021105604 76 244 0.0 0.0 0.00 0.03 0.00 85 1015.9
20191021105053 76 244 0.0 0.0 0.00 0.03 0.00 85 1015.8
20191021104611 76 244 0.0 0.0 0.00 0.03 0.00 85 1015.7
20191021104051 76 244 0.0 0.0 0.00 0.03 0.00 84 1015.7
20191021103604 76 244 0.0 0.0 0.00 0.03 0.00 84 1015.6
20191021103129 76 244 0.0 0.0 0.00 0.03 0.00 84 1015.5
20191021102550 76 244 0.0 0.0 0.00 0.03 0.00 84 1015.5
20191021102057 76 244 0.0 0.0 0.00 0.03 0.00 83 1015.5
20191021101643 76 244 0.0 0.0 0.00 0.03 0.00 83 1015.5
20191021101049 76 244 0.0 0.0 0.00 0.03 0.00 83 1015.5
20191021100557 77 244 0.0 0.0 0.00 0.03 0.00 82 1015.3
20191021100101 77 244 0.0 0.0 0.00 0.03 0.00 82 1015.2
20191021095546 77 244 0.0 0.0 0.00 0.03 0.00 82 1015.3
20191021095052 77 244 0.0 0.0 0.00 0.03 0.00 81 1015.2
20191021094630 77 244 0.0 0.0 0.00 0.03 0.00 81 1015.2
20191021094046 77 244 0.0 0.0 0.00 0.03 0.00 81 1015.2
20191021093559 77 244 0.0 0.0 0.00 0.03 0.00 81 1015.3
20191021093054 77 244 0.0 0.0 0.00 0.03 0.00 81 1015.2
20191021092555 77 243 0.0 0.0 0.00 0.03 0.00 81 1015.3
20191021092044 77 244 0.0 0.0 0.00 0.03 0.00 81 1015.2
20191021091704 77 244 0.0 0.0 0.00 0.03 0.00 81 1015.2
20191021091055 77 244 0.0 0.0 0.00 0.03 0.00 81 1015.2
20191021090603 77 243 0.0 0.0 0.00 0.03 0.00 81 1015.2
20191021090219 77 245 0.0 0.0 0.00 0.03 0.00 80 1015.2
20191021085603 77 245 0.0 3.0 0.00 0.03 0.00 80 1015.2
20191021085050 77 244 0.0 3.0 0.00 0.03 0.00 80 1015.1
20191021084632 78 244 0.0 3.0 0.00 0.03 0.00 80 1015.1
20191021084042 78 244 1.0 3.0 0.00 0.03 0.00 80 1015.1
20191021083600 78 248 0.0 0.0 0.00 0.03 0.00 80 1015.1
20191021083117 78 236 0.0 3.0 0.00 0.03 0.00 80 1015.0
20191021082543 78 236 0.0 3.0 0.00 0.03 0.00 80 1015.0
20191021082105 78 236 1.0 5.0 0.00 0.03 0.00 80 1015.1
20191021081633 78 236 1.0 5.0 0.00 0.03 0.00 80 1015.1
20191021081043 78 220 1.0 3.0 0.00 0.03 0.00 80 1015.0
20191021080541 78 245 0.0 4.0 0.00 0.03 0.00 80 1015.2
20191021080220 77 245 1.0 4.0 0.00 0.03 0.00 81 1015.1
20191021075549 77 215 0.0 0.0 0.00 0.03 0.00 81 1015.2
20191021075050 78 211 0.0 2.0 0.00 0.03 0.00 80 1015.2
20191021074706 78 215 0.0 4.0 0.00 0.03 0.00 80 1015.3
20191021074039 78 245 1.0 4.0 0.00 0.03 0.00 80 1015.2
20191021073539 78 242 0.0 3.0 0.00 0.03 0.00 80 1015.3
20191021073113 78 244 1.0 4.0 0.00 0.03 0.00 80 1015.3
20191021072549 78 251 1.0 4.0 0.00 0.03 0.00 80 1015.3
20191021072040 78 259 1.0 4.0 0.00 0.03 0.00 80 1015.3
20191021071549 78 211 0.0 4.0 0.00 0.03 0.00 80 1015.4
20191021071047 78 215 2.0 5.0 0.00 0.03 0.00 80 1015.3
20191021070537 78 239 1.0 4.0 0.00 0.03 0.00 80 1015.4
20191021070102 78 185 0.0 4.0 0.00 0.03 0.00 80 1015.4
20191021065556 78 173 1.0 4.0 0.00 0.03 0.00 80 1015.5
20191021065036 78 246 0.0 0.0 0.00 0.03 0.00 80 1015.5
20191021064605 78 220 0.0 0.0 0.00 0.03 0.00 80 1015.5
20191021064036 78 192 0.0 0.0 0.00 0.03 0.00 80 1015.4
20191021063536 78 171 0.0 0.0 0.00 0.03 0.00 80 1015.5
20191021063140 78 221 0.0 0.0 0.00 0.03 0.00 81 1015.6
20191021062604 78 159 0.0 0.0 0.00 0.03 0.00 81 1015.6
20191021062053 78 189 0.0 0.0 0.00 0.03 0.00 81 1015.6
20191021061557 78 190 0.0 0.0 0.00 0.03 0.00 81 1015.7
20191021061040 78 190 0.0 0.0 0.00 0.03 0.00 81 1015.6
20191021060543 78 190 0.0 0.0 0.00 0.03 0.00 81 1015.7
20191021060110 78 232 0.0 0.0 0.00 0.03 0.00 81 1015.8
20191021055532 78 232 0.0 0.0 0.00 0.13 0.00 81 1015.7
20191021055058 78 232 0.0 0.0 0.00 0.13 0.00 81 1015.7
20191021054613 78 232 0.0 0.0 0.00 0.13 0.00 81 1015.7
20191021054049 78 233 0.0 0.0 0.00 0.13 0.00 80 1015.7
20191021053531 79 251 0.0 0.0 0.00 0.13 0.00 80 1015.8
20191021053122 79 252 0.0 0.0 0.00 0.13 0.00 80 1015.8
20191021052531 79 252 0.0 0.0 0.00 0.13 0.00 80 1015.7
20191021052052 79 252 0.0 0.0 0.00 0.13 0.00 80 1015.7
20191021051609 79 252 0.0 0.0 0.00 0.13 0.00 80 1015.7
20191021051032 79 252 0.0 0.0 0.00 0.13 0.00 80 1015.6
20191021050554 79 252 0.0 0.0 0.00 0.13 0.00 80 1015.7
20191021050110 79 252 0.0 0.0 0.00 0.13 0.00 80 1015.8
20191021045528 79 252 0.0 0.0 0.00 0.13 0.00 80 1015.9
20191021045028 79 252 0.0 0.0 0.00 0.13 0.00 80 1015.9
20191021044614 79 252 0.0 0.0 0.00 0.13 0.00 80 1016.0
20191021044028 79 252 0.0 0.0 0.00 0.13 0.00 80 1016.0
20191021043532 79 252 0.0 0.0 0.00 0.13 0.00 80 1016.1
20191021043050 79 252 0.0 0.0 0.00 0.13 0.00 80 1016.0
20191021042526 79 252 0.0 0.0 0.00 0.13 0.00 80 1016.0
20191021042033 79 252 0.0 0.0 0.00 0.13 0.00 80 1016.1
20191021041631 79 252 0.0 0.0 0.00 0.13 0.00 80 1016.1
20191021041026 79 252 0.0 0.0 0.00 0.13 0.00 80 1016.2
20191021040525 79 252 0.0 0.0 0.00 0.13 0.00 80 1016.3
20191021040041 79 252 0.0 0.0 0.00 0.13 0.00 80 1016.4
20191021035524 79 252 0.0 0.0 0.00 0.13 0.13 79 1016.3
20191021035023 79 252 0.0 0.0 0.00 0.13 0.13 79 1016.4
20191021034532 79 252 0.0 0.0 0.00 0.13 0.13 79 1016.4
20191021034028 79 252 0.0 0.0 0.00 0.13 0.13 79 1016.5
20191021033529 79 252 0.0 0.0 0.00 0.13 0.13 78 1016.5
20191021033027 79 252 0.0 0.0 0.00 0.13 0.13 78 1016.5
20191021032523 79 252 0.0 0.0 0.00 0.13 0.13 79 1016.4
20191021032041 79 252 0.0 0.0 0.00 0.13 0.13 78 1016.4
20191021031607 79 252 0.0 0.0 0.00 0.13 0.13 78 1016.5
20191021031034 79 254 0.0 3.0 0.00 0.13 0.13 78 1016.4
20191021030539 79 254 0.0 6.0 0.00 0.13 0.13 78 1016.3
20191021030033 79 240 1.0 6.0 0.00 0.13 0.13 78 1016.3
20191021025520 79 230 2.0 4.0 0.00 0.13 0.13 78 1016.2
20191021025026 79 235 2.0 4.0 0.00 0.13 0.13 78 1016.3
20191021024553 79 227 2.0 4.0 0.00 0.13 0.13 79 1016.3
20191021024020 79 226 0.0 2.0 0.00 0.13 0.13 79 1016.2
20191021023520 79 228 0.0 0.0 0.00 0.13 0.13 79 1016.2
20191021023052 79 229 0.0 0.0 0.00 0.13 0.13 79 1016.2
20191021022521 79 229 0.0 3.0 0.00 0.13 0.13 79 1016.3
20191021022031 79 212 0.0 3.0 0.00 0.13 0.13 79 1016.2
20191021021543 79 207 0.0 3.0 0.00 0.13 0.13 79 1016.1
20191021021025 79 223 0.0 0.0 0.00 0.13 0.13 79 1016.1
20191021020517 79 223 0.0 0.0 0.00 0.13 0.13 79 1016.0
20191021020100 79 223 0.0 0.0 0.00 0.13 0.13 79 1015.9
20191021015515 79 223 0.0 0.0 0.00 0.13 0.13 79 1015.8
20191021015020 79 223 0.0 0.0 0.00 0.13 0.13 79 1015.8
20191021014523 79 223 0.0 0.0 0.00 0.13 0.13 79 1015.8
20191021014015 79 223 0.0 0.0 0.00 0.13 0.13 79 1015.7
20191021013516 79 223 0.0 0.0 0.00 0.13 0.13 79 1015.7
20191021013027 79 223 0.0 0.0 0.00 0.13 0.13 78 1015.7
20191021012514 79 223 0.0 0.0 0.01 0.13 0.13 79 1015.8
20191021012026 79 223 0.0 0.0 0.01 0.13 0.13 78 1015.6
20191021011547 79 223 0.0 0.0 0.01 0.13 0.13 78 1015.6
20191021011014 79 223 0.0 0.0 0.02 0.13 0.13 78 1015.5
20191021010519 79 223 0.0 2.0 0.03 0.13 0.13 78 1015.5
20191021010103 79 222 0.0 4.0 0.03 0.13 0.13 79 1015.3
20191021005523 79 222 1.0 4.0 0.03 0.13 0.13 79 1015.3
20191021005013 79 232 2.0 5.0 0.03 0.13 0.13 79 1015.4
20191021004516 79 205 2.0 5.0 0.03 0.13 0.13 78 1015.3
20191021004013 79 216 1.0 4.0 0.03 0.13 0.13 78 1015.3
20191021003513 79 193 0.0 3.0 0.03 0.13 0.13 78 1015.3
20191021003035 79 248 0.0 0.0 0.03 0.13 0.13 77 1015.3
20191021002512 80 249 0.0 3.0 0.02 0.12 0.12 77 1015.2
20191021002014 80 254 0.0 3.0 0.02 0.12 0.12 76 1015.3
20191021001531 81 268 1.0 3.0 0.02 0.12 0.12 74 1015.2
20191021001012 83 243 0.0 0.0 0.01 0.11 0.11 74 1015.3
20191021000512 83 336 0.0 0.0 0.00 0.10 0.10 71 1015.3
20191021000016 83 90 0.0 0.0 0.00 0.10 0.10 71 1015.1
20191020235514 83 91 0.0 0.0 0.00 0.10 0.10 72 1015.0
20191020235011 83 91 0.0 0.0 0.00 0.10 0.10 72 1014.9
20191020234526 83 91 0.0 0.0 0.00 0.10 0.10 72 1014.8
20191020234011 83 91 0.0 0.0 0.00 0.10 0.10 72 1014.8
20191020233511 83 91 0.0 0.0 0.00 0.10 0.10 72 1014.9
20191020233028 83 91 0.0 0.0 0.00 0.10 0.10 72 1014.7
20191020232511 83 91 0.0 0.0 0.00 0.10 0.10 72 1014.6
20191020232011 83 91 0.0 2.0 0.00 0.10 0.10 71 1014.6
20191020231517 83 91 0.0 2.0 0.00 0.10 0.10 71 1014.5
20191020231018 83 91 0.0 0.0 0.00 0.10 0.10 71 1014.5
20191020230520 83 91 0.0 0.0 0.00 0.10 0.10 70 1014.4
20191020230013 84 91 0.0 3.0 0.00 0.10 0.10 69 1014.4
20191020225517 84 91 0.0 3.0 0.00 0.10 0.10 69 1014.4
20191020225009 84 53 0.0 2.0 0.00 0.10 0.10 68 1014.2
20191020224541 84 53 0.0 3.0 0.00 0.10 0.10 68 1014.2
20191020224009 84 40 1.0 3.0 0.00 0.10 0.10 67 1014.1
20191020223521 84 27 0.0 2.0 0.00 0.10 0.10 67 1014.1
20191020223043 85 90 0.0 2.0 0.00 0.10 0.10 67 1014.0
20191020222509 85 90 0.0 1.0 0.00 0.10 0.10 66 1013.9
20191020222009 85 90 0.0 1.0 0.00 0.10 0.10 66 1014.0
20191020221522 85 263 0.0 0.0 0.00 0.10 0.10 65 1013.9
20191020221015 85 263 0.0 3.0 0.00 0.10 0.10 64 1013.8
20191020220512 86 263 0.0 3.0 0.00 0.10 0.10 63 1013.8
20191020220016 85 269 0.0 1.0 0.00 0.10 0.10 64 1013.7
20191020215508 86 269 0.0 3.0 0.00 0.10 0.10 63 1013.7
20191020215008 86 269 0.0 3.0 0.00 0.10 0.10 61 1013.6
20191020214537 86 297 0.0 3.0 0.00 0.10 0.10 61 1013.7
20191020214010 87 314 0.0 3.0 0.00 0.10 0.10 60 1013.6
20191020213010 88 315 1.0 5.0 0.00 0.10 0.10 59 1013.7
20191020212509 88 271 1.0 4.0 0.00 0.10 0.10 58 1013.6
20191020212007 88 286 0.0 8.0 0.00 0.10 0.10 58 1013.6
20191020211509 88 254 1.0 8.0 0.00 0.10 0.10 60 1013.6
20191020211007 87 184 2.0 8.0 0.00 0.10 0.10 61 1013.6
20191020210506 87 213 3.0 8.0 0.00 0.10 0.10 61 1013.5
20191020210018 88 299 1.0 5.0 0.00 0.10 0.10 60 1013.6
20191020205505 87 225 1.0 4.0 0.00 0.13 0.10 62 1013.6
20191020205011 87 229 1.0 6.0 0.00 0.13 0.10 62 1013.5
20191020204536 87 238 2.0 6.0 0.00 0.13 0.10 61 1013.5
20191020204005 87 303 2.0 4.0 0.00 0.13 0.10 61 1013.4
20191020203510 87 302 0.0 3.0 0.00 0.13 0.10 60 1013.4
20191020203019 87 298 1.0 4.0 0.00 0.13 0.10 59 1013.3
20191020202507 88 279 1.0 5.0 0.00 0.13 0.10 59 1013.4
20191020202005 88 288 2.0 6.0 0.00 0.13 0.10 58 1013.3
20191020201533 88 219 2.0 6.0 0.00 0.13 0.10 58 1013.3
20191020201009 88 326 1.0 7.0 0.00 0.13 0.10 58 1013.3
20191020200504 88 210 3.0 7.0 0.00 0.13 0.10 57 1013.3
20191020200006 88 178 3.0 9.0 0.00 0.13 0.10 57 1013.4
20191020195505 89 240 2.0 9.0 0.00 0.13 0.10 57 1013.5
20191020195004 89 287 2.0 14.0 0.00 0.13 0.10 57 1013.4
20191020194526 89 234 4.0 14.0 0.00 0.13 0.10 56 1013.4
20191020194002 89 279 2.0 10.0 0.00 0.13 0.10 57 1013.4
20191020193506 89 275 3.0 10.0 0.00 0.13 0.10 56 1013.4
20191020193016 89 153 3.0 10.0 0.00 0.13 0.10 57 1013.4
20191020192505 89 246 3.0 10.0 0.00 0.13 0.10 58 1013.4
20191020192004 88 236 2.0 9.0 0.00 0.13 0.10 58 1013.5
20191020191505 88 260 4.0 15.0 0.00 0.13 0.10 58 1013.6
20191020191006 89 232 5.0 15.0 0.00 0.13 0.10 57 1013.5
20191020190207 89 280 3.0 10.0 0.00 0.13 0.10 57 1013.6
20191020185605 89 255 4.0 13.0 0.00 0.15 0.10 57 1013.5
20191020185059 88 221 5.0 15.0 0.00 0.15 0.10 58 1013.5
20191020184700 88 279 3.0 14.0 0.00 0.15 0.10 60 1013.5
20191020183606 89 284 4.0 10.0 0.00 0.15 0.10 59 1013.4
20191020183259 88 195 3.0 10.0 0.00 0.15 0.10 60 1013.5
20191020182557 88 228 2.0 9.0 0.00 0.15 0.10 61 1013.6
20191020182103 88 121 2.0 13.0 0.00 0.15 0.10 63 1013.8
20191020181648 87 244 4.0 9.0 0.00 0.15 0.10 65 1013.9